Wind_Speed
39 39 36 43 37 39 34 39 39 41 41 43 37 38 36 37 36 36 35 32 34 29
40 41 27 30 31 31 33 31 33 47 13 31 33 38 35 33 37 36 35 36 32 31
39 41 36 25 31 23 23 29 35 40 43 48 40 29 35 33 34 33 34 30 36 30
39 37 30 22 17 23 40 37 40 39 46 54 40 37 33 33 29 32 29 31 30 32
38 35 32 31 25 14 21 22 22 36 46 42 38 37 34 32 30 32 34 31 32 32
36 37 31 27 31 29 10 13 23 18 30 34 33 33 36 36 33 34 37 35 31 34
37 38 38 37 35 31 24 23 24 36 28 28 30 34 37 35 32 32 35 34 34 31
37 37 40 39 35 34 33 28 26 15 56 50 19 10 24 31 29 29 27 32 32 32
37 35 37 37 36 34 34 29 31 30 24 16 15 7 19 24 32 32 31 26 30 31
37 35 34 35 36 33 30 28 30 30 26 25 18 5 2 9 18 23 22 23 24 25
32 32 34 35 36 32 27 26 30 30 25 22 25 15 4 7 6 10 16 20 23 25
31 28 29 33 32 30 25 28 27 30 28 26 30 26 11 4 9 7 14 17 21 25
29 28 29 27 26 22 20 24 27 31 34 33 30 35 18 10 3 15 17 17 18 21
25 28 27 28 26 26 22 29 26 25 29 26 29 31 32 19 13 13 18 18 16 12
Wind_Direction
311 307 244 240 239 239 235 220 214 239 198 193 190 194 194 193 192 192 194 187 194 200
329 328 267 240 249 259 256 211 211 217 275 195 197 194 195 200 196 193 194 199 196 196
339 344 341 281 260 263 276 180 191 200 244 288 220 206 194 204 197 194 196 195 198 200
347 348 359 352 285 245 247 236 185 186 230 236 219 214 210 203 196 193 195 198 199 200
349 352 360 1 4 330 221 211 201 198 200 208 207 205 207 204 198 195 201 199 201 204
356 354 354 360 8 24 5 298 252 223 203 198 199 198 207 207 201 206 209 206 205 202
356 358 359 358 10 4 7 5 318 231 223 236 204 199 205 208 207 207 211 209 211 204
355 0 2 1 5 10 20 28 5 197 231 245 191 169 209 208 205 205 208 207 211 206
360 1 5 1 6 12 19 25 28 42 69 77 70 85 185 193 201 203 205 197 197 207
1 1 4 7 7 12 14 31 31 28 34 42 36 11 212 184 190 199 205 202 197 201
5 2 359 13 7 2 17 27 44 29 26 31 25 20 248 239 259 204 199 200 204 202
7 9 5 11 9 358 5 32 34 41 28 29 23 20 11 201 247 227 181 181 192 202
5 5 12 15 10 359 11 36 32 37 33 27 20 23 35 104 82 142 125 109 113 144
6 11 9 14 12 8 17 33 34 37 37 23 23 26 39 51 102 126 117 96 84 94
Height
676 661 651 650 649 652 653 652 652 661 661 679 687 698 703 710 713 716 724 730 736 744
666 650 642 643 649 654 651 649 653 651 645 668 680 696 696 708 708 709 715 722 729 735
667 653 644 641 644 643 642 631 654 656 672 677 683 686 688 703 704 703 708 715 722 728
671 660 652 645 641 644 646 648 651 658 669 673 680 681 691 694 697 697 703 709 716 720
676 665 657 649 642 640 647 646 648 651 657 666 674 678 682 688 689 690 696 700 708 713
682 669 663 659 654 650 651 655 652 649 654 659 662 668 675 680 681 684 691 695 701 704
687 673 662 655 654 650 645 639 636 638 638 649 655 663 671 675 676 682 685 691 696 699
697 685 670 662 661 652 645 633 626 617 645 666 657 654 664 666 671 678 681 687 690 691
705 695 683 672 669 664 657 652 643 643 631 637 639 655 656 661 668 672 678 680 683 686
713 704 693 682 675 677 674 666 657 651 655 653 655 656 658 661 665 668 671 676 678 683
727 716 705 691 683 681 684 678 668 669 669 668 664 660 660 661 662 666 669 673 676 681
729 729 720 704 699 693 685 681 682 676 678 674 669 663 660 656 665 669 670 673 675 679
732 728 725 720 714 710 699 687 684 679 678 677 676 671 664 656 665 665 666 672 673 678
735 730 726 719 717 714 708 696 695 695 693 694 690 681 666 661 665 669 670 672 676 680